Weather in Kagal'nickaja

Russia / Rostov Oblast     46°52′50″N   40°08′52″E
temp.,
°C
wind,
m/s
gust,
m/s
humid.,
%
clouds,
%
prec.,
mm/h
press.,
hPa
HPBL,
m
16 june, wed
wed1600:00+19s11800 0.0 100911
03:00+18s11830 0.1 101011
06:00+19n228699 0.0 101072
09:00+24n116922 0.1 1011559
12:00+27ne335933 0.2 10111386
15:00+28e355711 1.9 10101520
18:00+25ne487172 0.1 1009240
21:00+24ene6146591 0.2 1008416
17 june, thu
thu1700:00+22ne6176756 0.1 1008461
03:00+20ene82076100 0.3 1007592
06:00+19ne51485100 1.3 1008362
09:00+20nne4991100 4.8 1010332
12:00+23nnw1281100 2.4 1012251
15:00+20ssw2495100 10.6 1011160
18:00+17w61096100 26.2 1013366
21:00+17sse2295100 27.1 101535
18 june, fri
fri1800:00+17ene2295100 0.0 101646
03:00+15nw119599 0.0 101711
06:00+17nw2393100 0.1 1018108
09:00+18n4592100 1.1 1018324
12:00+20ne368299 1.9 1019734
15:00+18ne3693100 2.6 1019245
18:00+18ne4987100 0.3 1018349
21:00+18nne4138776 0.4 1018372
19 june, sat
sat1900:00+17ene6157965 0.0 1018411
03:00+16ene614760 0.1 1018337
06:00+16ene614790 0.2 1019355
09:00+21e813670 0.4 1019551
12:00+25e812560 0.0 10191061
15:00+27ene813550 0.0 10171487
18:00+25ene713620 0.0 1017623
21:00+21ne717620 0.0 1017369
20 june, sun
sun2000:00+20ene718550 0.0 1017484
03:00+18ene718520 0.0 1017417
06:00+17ene71861100 0.0 1016385
09:00+21ene81662100 0.0 1016609
12:00+27e915549 0.0 10151065
15:00+30e816505 0.0 10141873
18:00+28e7155698 0.0 1013529
21:00+25e717493 0.0 1015399